Terminal Aerodrome Forecast
Issued by NWS Shreveport, LA

Home | Current Version | Previous Version | Text Only | Print | Product List | Glossary On
Versions: 1 2 3 4 5 6 7 8 9 10 11 12 13 14 15 16 17 18
000
FTUS44 KSHV 282016 AAA
TAFMLU
TAF AMD
KMLU 282016Z 2820/2918 18008KT P6SM FEW030 SCT060
     FM290400 VRB05KT P6SM VCTS SCT020CB BKN040
      TEMPO 2905/2907 TSRA BKN020CB
     FM290900 VRB05KT P6SM SCT010 BKN020
     FM291600 VRB05KT P6SM VCSH BKN015=

USA.gov is the U.S. government's official web portal to all federal, state and local government web resources and services.